DW2004 Weather Reports


time (UTC)temp
C
wind
direction
speed
KPH
gust
KPH
rain 1hr
cm
rain 24hr
cm
rain mn
cm
humidity
%
barometer
mb
20260506062459 15 76 1.6 14.5 0.00 0.00 0.00 75 1010.4
20260506061957 15 64 1.6 14.5 0.00 0.00 0.00 75 1010.5
20260506061501 15 75 1.6 14.5 0.00 0.00 0.00 75 1010.4
20260506060958 15 329 4.8 14.5 0.00 0.00 0.00 75 1010.4
20260506060458 15 344 3.2 14.5 0.00 0.00 0.00 75 1010.3
20260506051004 16 348 1.6 19.3 0.00 0.00 0.00 77 1010.4
20260506044508 16 340 1.6 14.5 0.00 0.00 0.00 77 1010.4
20260506044004 16 321 4.8 12.9 0.00 0.00 0.00 76 1010.4
20260506043504 16 333 0.0 16.1 0.00 0.00 0.00 77 1010.4
20260506043007 16 331 3.2 16.1 0.00 0.00 0.00 76 1010.5
20260506042504 16 342 6.4 16.1 0.00 0.00 0.00 76 1010.2
20260506041508 16 21 3.2 16.1 0.00 0.00 0.00 76 1010.3
20260506041004 17 318 3.2 20.9 0.00 0.00 0.00 76 1010.2
20260506040503 17 329 1.6 20.9 0.00 0.00 0.00 76 1010.1
20260506040008 17 348 4.8 19.3 0.00 0.00 0.00 76 1010.1
20260506035002 17 13 6.4 19.3 0.00 0.00 0.00 76 1009.8
20260506034506 17 31 3.2 19.3 0.00 0.00 0.00 76 1009.8
20260506034003 17 360 3.2 14.5 0.00 0.00 0.00 75 1009.6
20260506032502 17 22 3.2 17.7 0.00 0.00 0.00 76 1009.5
20260506032002 17 71 0.0 16.1 0.00 0.00 0.00 76 1009.4
20260506031506 17 67 1.6 17.7 0.00 0.00 0.00 75 1009.4
20260506031002 18 344 4.8 17.7 0.00 0.00 0.00 74 1009.5
20260506030502 18 348 6.4 22.5 0.00 0.00 0.00 74 1009.5
20260506030008 18 344 6.4 24.1 0.00 0.00 0.00 75 1009.3
20260506025502 18 329 4.8 24.1 0.00 0.00 0.00 75 1009.1
20260506025002 18 32 6.4 17.7 0.00 0.00 0.00 75 1009.1
20260506024507 18 11 6.4 17.7 0.00 0.00 0.00 74 1008.9
20260506024003 19 11 6.4 17.7 0.00 0.00 0.00 74 1008.8
20260506023503 19 310 3.2 17.7 0.00 0.00 0.00 74 1008.6
20260506023006 19 355 6.4 17.7 0.00 0.00 0.00 74 1008.5
20260506022002 20 333 1.6 14.5 0.00 0.00 0.00 74 1007.9
20260506020502 20 345 1.6 12.9 0.00 0.00 0.00 73 1007.7
20260506020008 20 319 1.6 12.9 0.00 0.00 0.00 73 1007.5
20260506015503 20 21 1.6 12.9 0.00 0.00 0.00 73 1007.5
20260506015003 20 329 1.6 9.7 0.00 0.00 0.00 72 1007.5
20260506014507 20 314 1.6 12.9 0.00 0.00 0.00 72 1007.2
20260506014003 20 306 1.6 12.9 0.00 0.00 0.00 72 1007.2
20260506013503 20 320 0.0 8.0 0.00 0.00 0.00 71 1007.2
20260506012502 20 340 1.6 8.0 0.00 0.00 0.00 71 1007.0
20260506012003 20 335 1.6 9.7 0.00 0.00 0.00 70 1007.0
20260506011506 20 331 0.0 12.9 0.00 0.00 0.00 70 1007.1
20260506011002 21 342 1.6 12.9 0.00 0.00 0.00 70 1006.8
20260506010503 21 14 0.0 16.1 0.00 0.00 0.00 70 1006.7
20260506005502 21 342 3.2 22.5 0.00 0.00 0.00 69 1006.5
20260506005003 21 338 3.2 17.7 0.00 0.00 0.00 69 1006.9
20260506004506 21 321 4.8 16.1 0.00 0.00 0.00 69 1006.1
20260506004003 21 340 1.6 19.3 0.00 0.00 0.00 69 1005.6
20260506003504 22 13 9.7 22.5 0.00 0.00 0.00 68 1005.9
20260506003006 22 321 9.7 27.4 0.00 0.00 0.00 68 1005.9
20260506002502 22 336 9.7 27.4 0.00 0.00 0.00 67 1005.7
20260506002003 22 340 4.8 20.9 0.00 0.00 0.00 67 1005.6
20260506001505 22 360 3.2 22.5 0.00 0.00 0.00 67 1005.7
20260506001002 22 329 8.0 24.1 0.00 0.00 0.00 66 1005.9
20260506000503 23 331 9.7 24.1 0.00 0.00 0.00 66 1005.8
20260506000008 23 320 4.8 19.3 0.00 0.00 0.00 66 1005.5
20260505235504 23 355 3.2 19.3 0.00 0.00 0.00 66 1005.8
20260505235002 23 355 6.4 20.9 0.00 0.00 0.00 65 1005.8
20260505234002 23 349 4.8 27.4 0.00 0.00 0.00 65 1005.6
20260505233502 24 355 6.4 27.4 0.00 0.00 0.00 65 1005.5
20260505233006 24 355 9.7 22.5 0.00 0.00 0.00 64 1005.4
20260505232503 25 19 8.0 22.5 0.00 0.00 0.00 63 1005.2
20260505232002 25 9 11.3 22.5 0.00 0.00 0.00 62 1005.0
20260505231002 26 346 8.0 25.7 0.00 0.00 0.00 62 1005.1
20260505230008 26 279 9.7 24.1 0.00 0.00 0.00 62 1005.0
20260505225505 27 10 6.4 19.3 0.00 0.00 0.00 62 1005.0
20260505224505 27 330 4.8 17.7 0.00 0.00 0.00 60 1004.6
20260505224001 27 321 6.4 17.7 0.00 0.00 0.00 59 1004.5
20260505223009 28 328 3.2 17.7 0.00 0.00 0.00 57 1004.6
20260505222502 28 288 4.8 17.7 0.00 0.00 0.00 56 1004.4
20260505222001 29 321 3.2 17.7 0.00 0.00 0.00 55 1004.1
20260505221507 28 336 1.6 17.7 0.00 0.00 0.00 56 1004.1
20260505221000 29 326 6.4 17.7 0.00 0.00 0.00 54 1004.1
20260505220501 30 337 6.4 17.7 0.00 0.00 0.00 52 1004.1
20260505215502 30 306 0.0 17.7 0.00 0.00 0.00 53 1003.9
20260505214516 30 290 3.2 19.3 0.00 0.00 0.00 48 1004.0
20260505214001 30 5 8.0 20.9 0.00 0.00 0.00 47 1004.2
20260505213502 30 321 9.7 20.9 0.00 0.00 0.00 45 1004.1
20260505213008 30 341 6.4 17.7 0.00 0.00 0.00 46 1004.1
20260505212501 30 344 4.8 12.9 0.00 0.00 0.00 48 1004.0
20260505212001 31 349 4.8 16.1 0.00 0.00 0.00 47 1003.9
20260505211505 31 5 3.2 14.5 0.00 0.00 0.00 56 1003.9
20260505211002 31 268 1.6 17.7 0.00 0.00 0.00 54 1004.1
20260505210501 31 240 3.2 17.7 0.00 0.00 0.00 55 1004.1
20260505210006 31 223 0.0 12.9 0.00 0.00 0.00 55 1004.1
20260505205501 31 210 3.2 16.1 0.00 0.00 0.00 53 1004.3
20260505205015 32 227 6.4 17.7 0.00 0.00 0.00 53 1004.3
20260505204504 32 251 4.8 19.3 0.00 0.00 0.00 54 1004.2
20260505204003 31 246 6.4 19.3 0.00 0.00 0.00 54 1004.2
20260505203502 31 257 1.6 17.7 0.00 0.00 0.00 54 1004.3
20260505203005 31 209 3.2 19.3 0.00 0.00 0.00 56 1004.3
20260505202501 31 208 9.7 19.3 0.00 0.00 0.00 55 1004.2
20260505201505 31 261 8.0 22.5 0.00 0.00 0.00 54 1004.6
20260505201001 31 210 4.8 16.1 0.00 0.00 0.00 55 1004.7
20260505200007 31 249 1.6 19.3 0.00 0.00 0.00 60 1004.6
20260505195501 30 207 4.8 24.1 0.00 0.00 0.00 58 1004.5
20260505194505 31 241 6.4 16.1 0.00 0.00 0.00 58 1004.7
20260505194005 30 279 1.6 16.1 0.00 0.00 0.00 60 1004.7
20260505193502 30 232 3.2 24.1 0.00 0.00 0.00 60 1004.8
20260505192501 30 254 3.2 22.5 0.00 0.00 0.00 59 1004.7
20260505192001 30 265 11.3 22.5 0.00 0.00 0.00 59 1004.6
20260505191505 30 203 11.3 27.4 0.00 0.00 0.00 59 1004.6
20260505190501 30 263 6.4 19.3 0.00 0.00 0.00 62 1004.6
20260505190011 29 207 3.2 16.1 0.00 0.00 0.00 65 1004.7
20260505185501 29 180 3.2 14.5 0.00 0.00 0.00 66 1004.6
20260505185001 28 159 6.4 19.3 0.00 0.00 0.00 65 1004.6
20260505184505 28 181 4.8 19.3 0.00 0.00 0.00 64 1004.6
20260505184001 28 223 3.2 16.1 0.00 0.00 0.00 65 1004.7
20260505183502 28 265 4.8 22.5 0.00 0.00 0.00 65 1004.8
20260505182501 28 190 9.7 24.1 0.00 0.00 0.00 65 1004.7
20260505181505 28 224 8.0 24.1 0.00 0.00 0.00 64 1004.7
20260505181001 28 246 1.6 16.1 0.00 0.00 0.00 66 1004.8
20260505180501 28 145 4.8 22.5 0.00 0.00 0.00 66 1004.8
20260505180006 28 242 9.7 22.5 0.00 0.00 0.00 64 1004.8
20260505175500 28 216 6.4 25.7 0.00 0.00 0.00 66 1004.7
20260505174504 27 194 8.0 32.2 0.00 0.00 0.00 67 1004.8
20260505174001 27 217 6.4 20.9 0.00 0.00 0.00 68 1004.8
20260505173500 27 215 4.8 20.9 0.00 0.00 0.00 69 1004.8
20260505173006 27 238 6.4 17.7 0.00 0.00 0.00 69 1004.8
20260505172500 27 236 4.8 19.3 0.00 0.00 0.00 69 1004.7
20260505172000 27 217 11.3 22.5 0.00 0.00 0.00 68 1004.9
20260505171000 26 195 6.4 24.1 0.00 0.00 0.00 69 1004.8
20260505170500 26 240 8.0 17.7 0.00 0.00 0.00 69 1004.9
20260505170008 26 218 8.0 17.7 0.00 0.00 0.00 70 1004.8
20260505165500 26 232 3.2 17.7 0.00 0.00 0.00 71 1004.9
20260505165000 26 200 4.8 16.1 0.00 0.00 0.00 71 1004.9
20260505164503 26 227 6.4 20.9 0.00 0.00 0.00 71 1004.9
20260505164000 26 251 4.8 17.7 0.00 0.00 0.00 72 1004.9
20260505163500 26 222 4.8 17.7 0.00 0.00 0.00 72 1004.9
20260505163004 26 222 4.8 22.5 0.00 0.00 0.00 72 1004.7
20260505162500 26 214 6.4 22.5 0.00 0.00 0.00 72 1004.8
20260505161000 25 212 3.2 27.4 0.00 0.00 0.00 73 1004.7
20260505160500 25 179 9.7 25.7 0.00 0.00 0.00 72 1004.5
20260505153005 25 250 6.4 25.7 0.00 0.00 0.00 74 1004.4
20260505152500 25 200 6.4 20.9 0.00 0.00 0.00 75 1004.4
20260505152000 25 232 8.0 20.9 0.00 0.00 0.00 75 1004.3
20260505151000 24 249 3.2 19.3 0.00 0.00 0.00 77 1004.4
20260505150500 24 237 8.0 20.9 0.00 0.00 0.00 76 1004.5
20260505140500 23 198 3.2 14.5 0.00 0.00 0.00 80 1004.5
20260505125001 22 215 6.4 24.1 0.00 0.00 0.00 83 1004.2
20260505124502 22 222 8.0 17.7 0.00 0.00 0.00 83 1004.0
20260505123959 22 236 6.4 22.5 0.00 0.00 0.00 83 1003.8
20260505123459 22 205 6.4 22.5 0.00 0.00 0.00 83 1003.8
20260505121959 22 190 6.4 20.9 0.00 0.00 0.00 83 1003.6
20260505121502 22 199 6.4 24.1 0.00 0.00 0.00 83 1003.6
20260505120005 22 246 9.7 20.9 0.00 0.00 0.00 83 1003.6
20260505115458 22 253 8.0 20.9 0.00 0.00 0.00 83 1003.5
20260505114959 22 230 3.2 22.5 0.00 0.00 0.00 82 1003.5
20260505114509 22 186 4.8 30.6 0.00 0.00 0.00 82 1003.5
20260505114000 22 210 8.0 19.3 0.00 0.00 0.00 82 1003.4
20260505113500 22 233 9.7 32.2 0.00 0.00 0.00 82 1003.3
20260505113003 22 202 9.7 32.2 0.00 0.00 0.00 82 1003.3
20260505111959 22 250 12.9 22.5 0.00 0.00 0.00 82 1003.3
20260505111502 21 194 8.0 22.5 0.00 0.00 0.00 82 1003.4
20260505110959 22 237 4.8 22.5 0.00 0.00 0.00 82 1003.4
20260505110500 22 217 4.8 19.3 0.00 0.00 0.00 82 1003.4
20260505101959 22 210 4.8 17.7 0.00 0.00 0.00 81 1003.5
20260505100959 22 196 6.4 22.5 0.00 0.00 0.00 81 1003.3
20260505100459 22 219 4.8 17.7 0.00 0.00 0.00 80 1003.3
20260505100004 22 182 6.4 24.1 0.00 0.00 0.00 81 1003.3
20260505094959 22 203 6.4 25.7 0.00 0.00 0.00 80 1003.4
20260505094505 22 199 6.4 16.1 0.00 0.00 0.00 80 1003.4
20260505093959 22 232 6.4 17.7 0.00 0.00 0.00 80 1003.4
20260505093001 22 163 3.2 14.5 0.00 0.00 0.00 80 1003.6
20260505091959 22 211 4.8 24.1 0.00 0.00 0.00 79 1003.7
20260505090958 22 215 8.0 25.7 0.00 0.00 0.00 79 1003.8
20260505090458 22 190 4.8 25.7 0.00 0.00 0.00 79 1003.9
20260505090009 22 210 4.8 16.1 0.00 0.00 0.00 79 1003.8
20260505084501 22 231 4.8 19.3 0.00 0.00 0.00 78 1003.8
20260505083958 22 230 6.4 19.3 0.00 0.00 0.00 78 1003.9
20260505083458 22 230 4.8 22.5 0.00 0.00 0.00 78 1003.9
20260505083002 22 202 6.4 20.9 0.00 0.00 0.00 77 1003.9
20260505082459 22 165 4.8 25.7 0.00 0.00 0.00 77 1003.8
20260505081501 23 167 3.2 20.9 0.00 0.00 0.00 76 1003.9
20260505080958 23 227 3.2 20.9 0.00 0.00 0.00 76 1003.9
20260505080458 23 198 8.0 20.9 0.00 0.00 0.00 76 1003.9
20260505080004 23 163 3.2 16.1 0.00 0.00 0.00 75 1004.0
20260505075458 23 229 1.6 22.5 0.00 0.00 0.00 75 1004.0
20260505074958 23 217 6.4 22.5 0.00 0.00 0.00 75 1004.1
20260505074501 23 114 3.2 19.3 0.00 0.00 0.00 75 1004.2
20260505073958 23 191 4.8 17.7 0.00 0.00 0.00 75 1004.3
20260505073458 23 211 4.8 17.7 0.00 0.00 0.00 74 1004.4
20260505071958 23 215 8.0 25.7 0.00 0.00 0.00 73 1004.7
20260505071501 23 232 4.8 22.5 0.00 0.00 0.00 73 1004.8
20260505070958 23 266 4.8 22.5 0.00 0.00 0.00 73 1004.8
20260505070459 23 200 6.4 19.3 0.00 0.00 0.00 72 1004.8